Tracking 29487 objects as of 11-Sep-2024
HD Live streaming from Space Station
objects crossing your sky now

COSMOS 1691 DEB

Track COSMOS 1691 DEB now!
10-day predictions


NORAD ID: 16268
Int'l Code: 1985-094M
Perigee: 1,380.5 km
Apogee: 1,510.6 km
Inclination: 82.7 °
Period: 114.6 minutes
Semi major axis: 7816 km
RCS: 0.0885 m2 (small)
Launch date: October 9, 1985
Source: Commonwealth of Independent States (former USSR) (CIS)
Launch site: PLESETSK MISSILE AND SPACE COMPLEX (PKMTR)

Note: This is SATELLITE DEBRIS
Your satellite tracking list
Your tracking list is empty




NASA's NSSDC Master Catalog

Two Line Element Set (TLE):
1 16268U 85094M   24255.41984174  .00000460  00000-0  26873-2 0  9993
2 16268  82.7070 239.2595 0083190 140.2467 342.8114 12.56263526775986
Source of the keplerian elements: AFSPC